Location: Vihti�l�
(61.3833°N, 23.0667°E)
Time: 03:44:06
(UTC+00:00)

Cosmos 1484 Rocket - Pass Details

Date: 29 November 2020
Orbit: 506 x 558 km, 97.4° (Epoch: 19 January)

Event Time Altitude Azimuth Distance (km) Brightness Sun altitude
Rises 03:20:41 0° 17° (NNE) 2,631 6.5 -25.4°
Reaches altitude 10° 03:22:47 10° 19° (NNE) 1,740 5.6 -25.2°
Enters shadow 03:25:05 35° 29° (NNE) 838 3.9 -24.9°
